Wind_Speed
7 7 7 7 7 8 7 7 8 8 9 9 9 9 9 8 7 7 8 9 8 9 9 9 8 9 9 8 8 8 8 8 8 9 9 9 9 9 10 11 11 11 11
6 6 6 6 7 7 7 7 7 8 8 8 8 8 7 7 7 7 8 9 9 9 9 9 8 8 8 8 8 8 8 8 8 9 9 9 9 10 10 11 11 11 11
7 6 7 6 6 6 7 7 7 7 8 8 7 7 7 7 7 8 8 8 9 9 8 8 8 7 7 8 8 8 8 8 8 8 9 9 9 10 10 11 12 12 12
8 7 7 7 6 6 6 6 7 7 7 6 6 7 7 7 7 7 7 7 7 7 7 7 7 7 6 7 7 7 8 8 8 8 8 9 9 10 10 11 12 12 12
8 8 8 7 7 6 7 7 7 7 6 6 6 7 7 7 7 7 7 8 7 7 7 8 8 7 7 7 7 7 7 7 8 8 8 8 9 10 11 11 11 11 12
8 8 8 8 8 7 7 7 7 7 7 7 7 7 7 7 8 8 8 8 8 7 7 7 7 7 7 7 6 7 7 7 7 7 8 8 8 9 9 10 10 10 10
9 9 9 9 9 8 8 8 8 8 8 8 8 8 8 8 9 9 9 9 8 7 7 6 6 6 6 6 6 7 7 7 7 7 7 8 8 8 8 8 8 9 10
10 9 9 9 9 10 9 9 9 9 9 9 8 8 8 8 9 9 9 9 8 8 7 7 6 6 6 6 7 7 8 8 8 8 8 8 7 7 7 8 8 9 9
9 9 10 10 10 10 10 10 10 9 9 9 9 9 9 9 9 9 9 9 9 8 8 8 7 7 6 6 7 7 7 7 7 8 8 8 8 7 7 7 8 8 8
10 10 10 10 10 10 10 10 10 10 9 9 9 9 9 9 10 10 10 10 10 10 10 9 8 7 7 7 7 7 7 7 7 8 8 8 8 8 8 8 8 8 8
10 10 10 10 10 11 11 11 11 11 11 11 10 10 10 10 10 10 10 10 10 10 10 9 9 9 8 8 8 7 7 7 8 8 8 8 8 7 7 8 9 9 9
11 10 10 10 10 11 11 11 11 12 12 12 11 11 11 11 10 11 11 11 10 10 10 10 10 9 9 9 9 9 8 8 8 9 8 8 8 8 8 8 8 8 9
11 11 11 12 12 11 11 12 12 12 13 13 12 12 12 12 11 11 11 11 11 11 11 11 11 10 10 10 10 10 10 9 9 9 9 9 9 8 8 8 8 9 10
13 13 13 13 13 13 13 13 13 13 13 13 13 12 12 12 12 12 12 11 12 12 12 12 12 11 11 11 10 10 11 11 10 9 9 9 9 9 9 9 9 10 10
14 14 14 14 14 14 13 13 13 13 13 13 13 13 13 14 13 12 13 13 13 13 13 13 13 12 12 11 11 11 10 10 10 10 11 11 10 10 10 10 10 11 11
16 15 15 15 15 14 14 15 14 14 14 14 14 15 15 15 14 14 14 14 14 14 14 14 14 13 12 11 11 11 11 11 11 11 12 12 12 12 12 12 12 12 12
17 17 17 17 16 16 16 16 16 16 16 15 15 16 16 16 16 16 15 15 15 14 14 14 14 13 13 13 13 13 12 12 12 12 13 13 13 13 14 14 13 14 14
18 18 18 18 18 18 18 17 17 17 17 17 16 16 17 17 17 16 16 16 16 16 16 15 16 15 15 15 14 14 14 14 14 14 14 14 14 14 14 14 14 14 15
20 20 20 19 19 19 19 19 18 18 18 18 18 17 17 17 18 18 18 18 17 17 17 17 17 17 16 16 15 15 15 15 15 15 14 15 15 15 15 15 15 15 15
20 20 20 20 20 20 20 20 20 19 19 19 19 19 19 19 19 19 19 19 19 18 18 18 18 17 17 16 16 15 15 16 16 16 16 16 16 16 17 16 16 17 17
20 21 21 21 21 20 20 21 20 20 20 20 20 20 20 20 20 20 20 20 20 20 19 19 18 18 18 18 18 17 17 18 17 17 17 18 18 18 18 18 18 18 18
21 21 22 21 21 21 21 21 21 21 21 21 21 21 21 22 21 22 22 21 21 21 21 20 20 19 19 19 19 19 19 19 19 19 18 18 19 19 19 19 19 19 18
21 20 21 22 21 21 22 22 22 22 22 22 22 22 22 23 23 23 23 23 23 23 22 22 22 21 20 20 20 20 20 20 20 20 20 21 20 20 20 20 19 19 19
21 21 22 22 22 22 22 23 23 23 23 23 24 24 24 24 24 25 24 24 24 24 24 24 23 23 22 22 22 22 22 22 22 22 22 21 21 21 21 20 20 20 20
22 22 22 22 22 23 23 24 25 25 25 25 25 25 25 25 25 25 25 26 26 26 26 26 25 25 25 25 25 24 24 23 23 23 23 22 22 22 22 22 22 22 21
24 23 23 23 23 23 24 25 26 26 27 27 26 26 26 26 27 26 26 27 27 27 27 27 27 26 26 26 26 26 26 25 24 24 24 24 23 23 23 23 23 23 22
Wind_Direction
281 282 283 276 278 272 271 268 262 263 261 255 253 255 256 260 259 259 260 258 260 266 267 270 272 272 270 266 262 260 263 265 265 258 258 261 260 258 256 255 253 252 255
282 283 285 281 277 274 269 266 266 261 257 253 252 252 254 256 255 256 259 258 260 264 268 266 271 269 265 265 260 258 260 263 263 258 259 262 261 258 258 258 255 255 258
286 281 280 279 275 273 272 268 269 268 260 261 256 252 255 257 258 258 259 263 262 263 262 264 263 263 260 259 259 260 260 261 262 260 262 261 263 263 262 260 259 258 261
281 282 278 278 277 272 271 266 264 268 265 260 257 255 255 257 259 259 257 261 261 261 261 264 266 264 262 261 258 259 258 259 260 264 267 263 262 263 263 262 260 257 259
278 280 280 275 274 274 274 271 265 266 264 262 263 262 260 258 258 259 261 259 256 253 256 260 263 266 268 265 263 264 266 265 262 268 268 270 266 262 261 261 261 260 260
276 276 275 272 273 277 273 273 267 263 261 261 261 262 261 259 258 261 260 257 256 258 259 261 262 266 272 267 261 266 269 266 264 268 265 269 271 267 263 261 262 261 262
274 272 273 270 271 273 273 269 265 265 265 261 261 262 261 262 261 257 253 250 252 254 256 260 265 271 273 271 269 268 265 263 262 260 263 268 272 269 265 261 262 262 265
276 270 269 268 268 269 275 270 264 265 267 264 262 264 262 261 259 252 248 247 249 249 254 260 265 269 269 269 272 272 263 258 257 260 262 264 264 266 268 267 264 266 270
280 276 272 270 269 269 270 269 264 260 261 263 260 261 262 261 259 254 252 244 248 249 254 258 262 266 267 265 267 266 259 256 256 255 259 260 259 261 264 265 265 269 275
278 275 274 271 270 269 268 266 262 260 259 260 260 259 261 262 259 253 251 249 247 249 253 259 260 262 264 262 262 261 258 256 255 257 254 255 254 259 261 260 262 270 277
279 274 274 272 270 270 269 264 260 258 255 259 261 261 262 263 260 254 249 246 247 253 257 258 259 263 263 264 260 262 262 258 257 258 259 255 253 257 261 264 266 270 275
277 273 272 271 266 266 267 262 258 257 255 256 258 259 260 260 260 252 246 246 247 252 255 256 259 263 262 262 261 261 260 259 260 262 260 258 258 260 265 267 267 270 274
273 272 271 268 265 263 265 265 261 257 256 256 258 258 257 257 258 254 249 249 251 252 255 256 258 259 264 262 259 259 259 258 259 259 258 257 259 263 266 267 270 272 274
271 271 273 272 268 266 266 268 263 259 257 256 257 256 254 255 256 255 252 251 254 255 255 256 260 261 264 261 259 260 262 259 259 260 259 258 259 261 264 266 271 275 277
272 271 271 270 269 267 267 268 266 262 259 256 256 256 255 255 257 256 254 255 258 254 256 259 260 263 264 264 263 262 264 261 259 260 261 262 265 264 266 268 272 276 278
272 271 269 266 266 266 265 265 265 263 260 259 258 259 258 258 257 255 253 254 256 255 254 255 257 261 263 263 262 261 262 261 261 262 263 264 267 267 267 269 272 275 280
269 268 267 264 263 264 264 265 264 263 263 261 259 260 260 258 257 256 254 253 254 254 255 257 257 259 261 263 262 260 261 262 264 264 265 266 267 269 270 271 274 277 279
268 268 267 264 263 263 264 265 264 262 262 259 260 261 261 257 255 255 254 253 253 255 255 257 257 258 261 263 261 260 262 264 264 265 267 267 268 270 272 271 273 277 280
270 269 266 263 262 262 262 264 263 262 262 260 259 259 259 257 255 254 253 253 255 256 256 258 257 257 258 259 258 260 261 262 263 263 264 266 269 270 270 272 274 278 281
272 269 267 266 263 262 262 264 264 262 261 260 258 258 258 257 256 254 253 254 254 254 254 256 257 257 257 257 259 260 260 262 262 262 264 266 270 270 269 270 274 278 281
272 269 267 266 265 264 264 264 263 261 260 260 259 258 258 258 258 255 254 254 253 254 255 255 256 258 258 258 259 260 262 263 262 262 264 266 269 270 269 270 273 276 280
272 268 267 267 266 266 265 263 262 261 260 261 261 259 259 259 258 256 254 253 253 254 255 255 256 258 258 258 257 259 261 261 261 262 263 265 269 271 271 272 274 277 280
273 270 268 266 265 265 264 261 261 261 262 262 261 261 260 260 259 260 258 254 253 253 254 256 258 259 259 258 257 258 261 261 261 262 264 267 270 271 271 272 273 275 277
273 270 269 267 265 265 264 261 260 261 263 263 262 261 260 260 260 260 258 256 256 254 253 255 257 259 259 259 258 259 261 261 262 264 266 267 269 269 271 272 272 272 274
274 270 269 268 266 266 266 263 262 263 264 263 263 263 263 261 262 260 258 257 257 256 256 255 256 257 257 258 258 259 261 262 263 264 264 266 267 268 268 269 271 272 273
274 272 270 269 268 267 266 265 265 264 263 262 262 264 265 263 262 261 259 257 256 257 256 256 256 256 256 258 259 259 259 261 262 263 263 265 266 267 267 267 269 271 273
Height
5845 5845 5845 5845 5844 5844 5844 5844 5843 5843 5843 5843 5843 5842 5842 5842 5843 5843 5842 5842 5842 5842 5842 5842 5842 5842 5842 5842 5841 5842 5842 5841 5841 5841 5841 5841 5841 5841 5842 5843 5843 5844 5844
5844 5843 5843 5843 5842 5842 5842 5842 5841 5841 5841 5840 5840 5840 5840 5840 5841 5841 5840 5840 5840 5840 5840 5840 5840 5840 5839 5839 5839 5839 5839 5839 5839 5839 5839 5839 5839 5839 5840 5840 5841 5841 5841
5842 5841 5841 5841 5841 5840 5840 5840 5840 5839 5839 5839 5839 5839 5839 5838 5839 5839 5839 5838 5838 5838 5838 5838 5838 5837 5837 5837 5837 5837 5837 5837 5837 5837 5837 5837 5837 5837 5838 5838 5838 5838 5839
5840 5839 5839 5839 5839 5838 5838 5838 5838 5837 5837 5837 5837 5837 5837 5837 5837 5837 5837 5837 5836 5836 5836 5836 5836 5835 5835 5835 5835 5835 5835 5835 5835 5835 5835 5835 5835 5835 5835 5835 5835 5835 5836
5837 5837 5837 5837 5837 5837 5836 5836 5836 5836 5835 5835 5835 5835 5835 5835 5835 5835 5835 5835 5834 5834 5834 5834 5834 5834 5833 5833 5833 5833 5833 5833 5833 5833 5833 5833 5833 5833 5833 5833 5833 5833 5832
5835 5834 5835 5835 5835 5835 5835 5834 5834 5834 5834 5834 5834 5833 5833 5833 5833 5833 5833 5833 5833 5833 5833 5833 5832 5832 5832 5832 5832 5832 5831 5831 5831 5831 5831 5831 5831 5831 5831 5830 5830 5830 5830
5832 5832 5832 5832 5832 5832 5832 5832 5832 5831 5831 5831 5832 5831 5831 5831 5831 5831 5831 5831 5831 5831 5831 5831 5831 5831 5830 5830 5830 5830 5830 5830 5830 5829 5829 5829 5829 5829 5828 5828 5828 5828 5827
5830 5829 5829 5829 5829 5829 5829 5829 5829 5829 5829 5829 5829 5829 5829 5830 5829 5829 5829 5829 5829 5829 5829 5829 5829 5829 5829 5828 5828 5828 5828 5827 5827 5827 5827 5827 5827 5827 5826 5826 5826 5825 5824
5827 5826 5826 5826 5826 5826 5826 5826 5826 5826 5827 5827 5827 5827 5827 5827 5827 5827 5827 5827 5827 5827 5827 5827 5827 5827 5827 5827 5826 5826 5826 5825 5825 5825 5825 5825 5825 5825 5824 5824 5824 5823 5822
5823 5823 5823 5823 5823 5823 5823 5823 5823 5823 5824 5824 5824 5824 5825 5824 5824 5824 5825 5824 5825 5825 5825 5825 5825 5825 5825 5825 5824 5824 5823 5823 5824 5823 5823 5823 5823 5822 5822 5822 5821 5821 5820
5820 5820 5820 5820 5819 5819 5819 5820 5820 5820 5821 5821 5821 5821 5821 5821 5821 5822 5822 5822 5823 5823 5823 5823 5823 5823 5822 5822 5822 5822 5821 5821 5821 5821 5821 5820 5820 5820 5820 5819 5819 5818 5818
5816 5816 5816 5816 5816 5816 5816 5816 5816 5817 5817 5818 5818 5818 5818 5818 5818 5819 5819 5820 5820 5820 5820 5820 5820 5820 5820 5820 5819 5819 5819 5819 5819 5818 5818 5818 5818 5818 5817 5817 5816 5816 5815
5813 5813 5813 5813 5813 5813 5813 5813 5813 5813 5814 5814 5815 5815 5815 5815 5815 5816 5816 5816 5816 5817 5817 5818 5818 5817 5817 5817 5817 5817 5816 5816 5816 5816 5816 5816 5816 5815 5815 5815 5814 5813 5813
5810 5809 5809 5809 5809 5809 5809 5809 5809 5809 5810 5810 5811 5811 5811 5812 5812 5812 5813 5813 5813 5814 5814 5814 5814 5814 5814 5814 5813 5813 5813 5813 5813 5813 5813 5813 5813 5813 5813 5812 5812 5811 5810
5805 5805 5805 5805 5805 5805 5805 5805 5805 5805 5806 5806 5807 5807 5808 5808 5808 5809 5809 5810 5810 5810 5811 5811 5811 5811 5811 5811 5810 5810 5810 5810 5810 5810 5810 5810 5810 5810 5809 5809 5809 5808 5807
5800 5800 5801 5801 5801 5801 5801 5801 5801 5801 5801 5802 5802 5803 5804 5804 5804 5805 5805 5806 5806 5807 5807 5807 5807 5807 5807 5807 5807 5807 5807 5807 5807 5807 5807 5807 5807 5807 5806 5806 5805 5805 5804
5795 5795 5795 5795 5796 5796 5796 5796 5796 5797 5797 5797 5798 5798 5799 5800 5800 5801 5801 5801 5802 5802 5803 5804 5803 5804 5804 5804 5804 5804 5804 5804 5804 5804 5803 5803 5803 5803 5802 5802 5801 5801 5800
5790 5790 5790 5790 5790 5790 5791 5791 5791 5791 5792 5792 5793 5793 5794 5795 5795 5796 5797 5797 5798 5798 5799 5799 5799 5800 5800 5800 5800 5800 5800 5800 5800 5800 5800 5799 5799 5799 5798 5798 5798 5797 5796
5784 5784 5784 5784 5784 5784 5785 5785 5785 5785 5786 5787 5788 5788 5789 5789 5790 5791 5792 5792 5793 5793 5794 5794 5795 5795 5795 5795 5796 5796 5796 5796 5796 5796 5796 5796 5795 5795 5794 5794 5793 5793 5792
5777 5777 5777 5777 5778 5778 5779 5779 5780 5780 5781 5781 5782 5782 5783 5784 5785 5786 5786 5787 5787 5788 5788 5789 5790 5790 5790 5791 5791 5791 5792 5792 5792 5791 5791 5791 5791 5790 5790 5790 5789 5788 5787
5771 5771 5771 5771 5771 5772 5772 5773 5773 5774 5775 5775 5776 5776 5777 5778 5779 5780 5780 5781 5782 5782 5783 5783 5784 5785 5785 5786 5786 5786 5787 5786 5786 5787 5787 5786 5786 5786 5785 5785 5784 5783 5782
5765 5765 5765 5765 5765 5765 5766 5766 5767 5767 5768 5769 5769 5770 5770 5771 5772 5773 5774 5775 5776 5776 5777 5778 5778 5779 5780 5780 5781 5781 5781 5781 5781 5781 5781 5781 5780 5780 5780 5779 5778 5777 5776
5759 5758 5758 5758 5759 5759 5759 5759 5760 5760 5761 5762 5762 5763 5763 5764 5765 5766 5767 5768 5769 5770 5771 5772 5772 5773 5774 5774 5774 5775 5775 5775 5775 5775 5775 5775 5775 5774 5774 5773 5772 5771 5770
5752 5752 5752 5751 5752 5752 5752 5752 5752 5753 5754 5754 5754 5755 5756 5756 5757 5758 5759 5760 5761 5762 5763 5765 5766 5766 5767 5767 5768 5768 5768 5768 5768 5769 5769 5769 5768 5768 5767 5766 5765 5765 5764
5746 5745 5745 5744 5744 5744 5744 5745 5745 5745 5746 5746 5747 5747 5748 5749 5749 5750 5751 5752 5753 5754 5755 5756 5757 5758 5759 5759 5760 5761 5761 5761 5762 5761 5761 5762 5761 5761 5761 5760 5759 5758 5758
5739 5738 5738 5737 5737 5737 5737 5737 5737 5737 5738 5738 5739 5739 5740 5740 5741 5741 5743 5744 5745 5746 5747 5748 5749 5750 5751 5751 5752 5753 5753 5754 5754 5754 5754 5754 5754 5754 5754 5753 5752 5752 5751